Regional Weather Roundup
Issued by NWS

Home | Current Version | Previous Version | Graphics & Text | Print | Product List | Glossary On
Versions: 1 2 3 4 5 6 7 8 9 10 11 12 13 14 15 16 17 18 19 20 21 22 23 24 25 26 27 28 29 30 31 32 33 34 35 36 37 38 39 40 41 42 43 44 45 46 47 48 49 50
000
ASUS43 KOAX 270902
RWRNE

WEATHER ROUNDUP FOR NEBRASKA
NATIONAL WEATHER SERVICE OMAHA NE
400 AM CDT THU JUL 27 2017

NOTES: SATELLITE DATA IS BEING USED TO AUGMENT CLOUD COVER ABOVE
       12000 FEET.
       "FAIR" INDICATES FEW OR NO CLOUDS BELOW 12,000 FEET WITH NO
       SIGNIFICANT WEATHER AND/OR OBSTRUCTIONS TO VISIBILITY.


NEZ001>004-019>022-054>056-271000-
NEBRASKA PANHANDLE

CITY           SKY/WX    TMP DP  RH WIND       PRES   REMARKS
SCOTTSBLUFF    MOCLDY    68  63  84 E7        30.19F
ALLIANCE       CLOUDY    67  64  90 SE7       30.20F
CHADRON        CLOUDY    73  62  68 SE10      30.16F
GORDON         CLOUDY    67  63  85 CALM      30.19F
KIMBALL        MOCLDY    63  63  99 S6        30.24F
SIDNEY         CLEAR     60  58  92 CALM      30.23S
$$

NEZ057>060-069>072-079>082-271000-
SOUTHWEST NEBRASKA

CITY           SKY/WX    TMP DP  RH WIND       PRES   REMARKS
NORTH PLATTE   CLOUDY    69  64  84 NE8       30.15S
IMPERIAL       CLOUDY    68  64  87 N5        30.17S
LEXINGTON      CLOUDY    70  66  87 NE10      30.11S
MCCOOK         CLOUDY    70  69  97 N9        30.12R
OGALLALA       CLOUDY    69  67  92 CALM      30.18R
$$

NEZ005>010-023>029-035>040-094-271000-
NORTH CENTRAL NEBRASKA

CITY           SKY/WX    TMP DP  RH WIND       PRES   REMARKS
VALENTINE      PTCLDY    62  56  80 W3        30.17F
AINSWORTH      PTCLDY    62  60  95 CALM      30.17S
BROKEN BOW     CLEAR     65  61  87 N6        30.14S
O`NEILL        CLEAR     62  61  96 N5        30.14S
ORD            CLEAR     64  60  87 N5        30.11S
THEDFORD       PTCLDY    63  61  93 CALM      30.18F
$$

NEZ041-046>049-061>064-073>077-083>087-271000-
SOUTH CENTRAL NEBRASKA

CITY           SKY/WX    TMP DP  RH WIND       PRES   REMARKS
GRAND ISLAND   CLEAR     67  66  97 NE10      30.08S
AURORA         MOCLDY    69  69  99 NE8       30.07S
HASTINGS       CLOUDY    71  68  90 NE9       30.08R
HEBRON         CLOUDY    73  71  94 NE6       30.02F FOG
HOLDREGE       CLOUDY    69  68  95 NE8       30.09S FOG
KEARNEY        PTCLDY    69  67  93 N14       30.09S
YORK           MOCLDY    70  68  94 NE10      30.06S
$$

NEZ011>018-030>034-042>045-271000-
NORTHEAST NEBRASKA

CITY           SKY/WX    TMP DP  RH WIND       PRES   REMARKS
NORFOLK        CLEAR     65  60  84 N7        30.09S
ALBION         CLEAR     67  63  87 NE7       30.10S
BLAIR          HVY RAIN  70  67  90 N7        30.03S
COLUMBUS       CLEAR     67  63  87 N8        30.07R
FREMONT        CLOUDY    69  67  91 CALM      30.04S
TEKAMAH        CLEAR     68  64  87 N7        30.03F
WAYNE          CLEAR     62  61  98 N3        30.08F
$$

NEZ050>053-065>068-078-088>093-271000-
SOUTHEAST NEBRASKA

CITY           SKY/WX    TMP DP  RH WIND       PRES   REMARKS
LINCOLN        MOCLDY    73  71  93 N9        30.02R
OMAHA EPPLEY   CLEAR     70  67  90 NW8       30.01S
BEATRICE       CLOUDY    72  72  98 NE5       30.01S FOG
FALLS CITY     CLOUDY    74  73  97 N7        29.96S
NEBRASKA CITY  CLOUDY    72  72 100 N6        30.00R FOG
PLATTSMOUTH    MOCLDY    72  71  97 N3        30.01S FOG
$$

NEZ044-045-051>053-067-271000-
OMAHA AREA

CITY           SKY/WX    TMP DP  RH WIND       PRES   REMARKS
OMAHA EPPLEY   CLEAR     70  67  90 NW8       30.01S
BLAIR          HVY RAIN  70  67  90 N7        30.03S
FREMONT        CLOUDY    69  67  91 CALM      30.04S
MILLARD        CLEAR     74  72  93 N3        30.01S
OFFUTT AFB     CLEAR     72  70  93 N8        30.00S
PLATTSMOUTH    MOCLDY    72  71  97 N3        30.01S FOG
WAHOO          FAIR      69  68  95 N8        30.02F
$$



USA.gov is the U.S. government's official web portal to all federal, state and local government web resources and services.